Date,TemperatureHighF,TemperatureAvgF,TemperatureLowF,DewpointHighF,DewpointAvgF,DewpointLowF,HumidityHigh,HumidityAvg,HumidityLow,PressureMaxIn,PressureMinIn,WindSpeedMaxMPH,WindSpeedAvgMPH,GustSpeedMaxMPH,PrecipitationSumIn
2014-1-1,54,48,42,52,39,31,94,73,57,30.39,30.10,13,3,13,0.11
2014-1-2,60,51,48,59,50,46,98,96,93,30.10,29.47,39,3,39,0.62
2014-1-3,52,39,30,51,28,16,96,66,44,30.41,29.53,25,12,33,0.00
2014-1-4,46,38,29,44,32,16,93,79,55,30.45,30.22,16,9,19,0.00
2014-1-5,60,56,46,59,54,44,97,93,88,30.23,29.81,25,9,25,0.02
2014-1-6,62,53,34,61,48,14,98,86,43,30.04,29.63,38,15,38,0.06
2014-1-7,34,24,17,16,4,-1,52,43,33,30.49,30.04,25,8,25,0.00
2014-1-8,39,31,24,26,15,4,71,52,30,30.59,30.45,15,4,15,0.00
2014-1-9,52,43,35,41,33,18,85,68,48,30.50,30.41,18,8,18,0.00
2014-1-10,65,54,45,64,52,41,98,91,86,30.42,30.07,36,8,36,0.30
2014-1-11,64,59,53,63,58,52,98,97,94,30.08,29.62,40,14,49,0.50
2014-1-12,57,53,49,55,44,34,98,74,43,30.16,29.65,25,7,25,0.01
2014-1-13,60,53,46,57,47,41,91,81,54,30.20,29.96,15,1,15,0.00
2014-1-14,61,56,48,60,55,47,98,95,88,29.97,29.70,25,7,31,1.14
2014-1-15,57,50,43,51,46,39,97,88,54,29.96,29.82,13,2,13,0.02
2014-1-16,52,43,38,47,39,33,95,88,79,30.04,29.79,23,6,23,0.00
2014-1-17,59,49,39,51,39,28,85,67,48,30.07,29.83,29,14,32,0.00
2014-1-18,58,42,35,51,29,19,88,59,44,30.05,29.75,40,12,45,0.08
2014-1-19,51,47,36,44,35,19,82,63,46,30.03,29.88,33,15,33,0.00
2014-1-20,54,52,49,50,44,38,91,76,62,29.93,29.78,31,17,31,0.00
2014-1-21,57,52,33,50,47,30,92,83,73,29.82,29.41,33,15,33,0.08
2014-1-22,33,28,24,30,21,18,89,74,65,30.09,29.61,23,9,27,0.00
2014-1-23,40,33,27,26,20,14,77,60,37,30.29,30.08,15,3,15,0.00
2014-1-24,35,25,20,22,8,2,63,47,34,30.49,30.27,26,9,26,0.00
2014-1-25,50,38,22,41,28,4,81,66,45,30.28,29.63,46,21,46,0.00
2014-1-26,50,45,36,44,33,23,81,63,47,29.98,29.79,28,12,28,0.00
2014-1-27,54,51,41,49,46,35,92,83,75,29.96,29.78,32,12,32,0.00
2014-1-28,41,30,25,36,25,22,92,81,66,30.20,29.96,33,11,33,0.00
2014-1-29,26,24,20,24,19,14,93,82,64,30.31,29.98,13,4,13,0.00
2014-1-30,36,31,24,32,25,15,92,79,66,30.32,30.11,17,8,20,0.19
2014-1-31,46,39,34,44,37,32,95,94,91,30.18,30.09,12,2,12,0.20
2014-2-1,56,45,36,47,41,35,96,86,56,30.19,30.04,13,3,13,0.03
2014-2-2,53,48,45,52,47,44,97,97,95,30.09,30.01,9,2,9,0.01
2014-2-3,56,50,42,55,50,39,98,97,90,30.18,29.90,21,5,21,0.00
2014-2-4,45,42,39,44,41,37,96,93,90,30.29,29.99,26,6,26,0.02
2014-2-5,58,51,45,57,51,44,99,98,96,29.99,29.74,33,7,33,0.51
2014-2-6,51,41,35,50,34,29,98,76,67,30.30,29.95,24,9,24,0.00
2014-2-7,47,40,34,37,34,29,94,80,56,30.29,30.19,17,6,17,0.09
2014-2-8,43,40,37,41,38,35,95,90,80,30.22,30.03,21,6,21,0.49
2014-2-9,52,43,35,48,40,33,94,88,72,30.15,29.96,14,4,14,0.00
2014-2-10,49,43,36,47,38,31,95,83,74,30.17,29.96,20,7,20,0.00
2014-2-11,36,32,29,33,30,27,94,93,89,30.30,30.14,24,4,24,0.34
2014-2-12,58,38,30,56,36,27,98,91,86,30.28,29.56,33,8,33,0.22
2014-2-13,59,44,37,58,42,34,97,93,86,29.62,29.34,37,14,37,0.28
2014-2-14,50,45,39,46,40,34,90,84,79,29.80,29.62,33,15,33,0.00
2014-2-15,53,46,36,48,38,20,95,76,47,29.99,29.44,40,12,40,0.06
2014-2-16,48,40,34,43,30,21,86,67,54,30.10,29.98,17,7,18,0.00
2014-2-17,44,39,36,40,31,28,87,73,59,30.33,30.10,24,9,24,0.00
2014-2-18,63,51,38,51,46,35,94,85,51,30.16,30.05,24,4,24,0.00
2014-2-19,56,52,48,55,50,46,96,92,83,30.10,29.89,31,10,31,0.00
2014-2-20,62,55,50,56,51,42,97,87,64,30.17,30.07,16,4,16,0.00
2014-2-21,61,55,52,60,55,51,98,97,96,30.07,29.83,57,12,57,0.35
2014-2-22,62,54,49,51,42,30,98,68,30,30.12,29.98,17,3,17,0.01
2014-2-23,61,53,48,51,47,43,93,83,57,30.08,29.86,13,3,15,0.00
2014-2-24,59,53,49,52,47,41,96,82,51,30.10,29.83,20,4,20,0.00
2014-2-25,60,50,43,54,43,36,92,77,63,30.08,29.82,24,4,24,0.00
2014-2-26,46,42,37,40,37,34,92,83,67,29.93,29.72,23,8,23,0.19
2014-2-27,50,43,34,46,38,31,92,83,71,29.92,29.72,25,9,25,0.00
2014-2-28,45,38,36,41,31,28,85,76,65,30.22,29.92,31,13,31,0.00
2014-3-1,59,46,36,47,39,32,89,78,61,30.26,30.16,17,5,18,0.00
2014-3-2,57,51,46,52,47,42,95,87,70,30.18,29.92,18,3,18,0.00
2014-3-3,60,45,31,56,42,28,93,90,77,30.12,29.85,33,13,33,0.00
2014-3-4,35,32,28,32,29,24,93,89,86,30.21,30.09,31,12,31,0.00
2014-3-5,40,37,33,39,36,31,95,93,88,30.18,30.04,21,9,21,0.16
2014-3-6,49,42,38,48,39,34,96,90,84,30.19,29.84,30,15,33,0.53
2014-3-7,52,49,42,50,47,39,96,94,91,29.84,29.54,40,18,40,0.91
2014-3-8,42,41,40,39,38,37,91,90,90,29.82,29.78,25,11,25,0.00
2014-3-9,65,52,45,50,46,42,94,82,49,30.02,29.93,17,6,21,0.00
2014-3-10,58,53,45,53,49,42,95,89,78,29.98,29.79,14,4,17,0.00
2014-3-11,57,54,51,54,51,49,93,90,87,29.80,29.67,16,7,18,0.00
2014-3-12,59,57,51,56,54,38,96,91,62,29.70,29.30,46,20,46,0.14
2014-3-13,51,43,38,39,21,14,63,43,29,30.21,29.52,29,10,33,0.00
2014-3-14,54,46,38,50,32,19,89,61,37,30.33,30.09,20,6,20,0.00
2014-3-15,57,54,52,51,50,49,92,87,77,30.09,29.92,19,8,21,0.00
2014-3-16,56,53,50,52,50,46,96,89,73,30.00,29.69,14,2,15,0.52
2014-3-17,50,43,40,48,42,39,96,95,93,29.84,29.67,21,11,22,0.32
2014-3-18,48,44,41,46,43,39,96,95,94,30.00,29.73,32,14,32,0.15
2014-3-19,61,50,44,58,49,43,97,95,81,30.04,29.93,21,8,23,0.01
2014-3-20,62,53,48,53,50,47,97,90,61,29.98,29.89,17,6,19,0.00
2014-3-21,60,54,47,51,45,33,95,74,36,30.11,29.97,12,3,15,0.01
2014-3-22,60,58,55,59,55,51,96,90,83,30.07,29.93,17,5,18,0.04
2014-3-23,60,56,41,59,53,37,97,91,59,30.07,29.84,24,3,27,0.00
2014-3-24,47,42,38,37,30,21,90,66,37,30.20,30.06,18,7,22,0.01
2014-3-25,52,45,38,50,41,32,94,86,59,30.07,29.58,21,7,26,0.47
2014-3-26,47,40,34,35,25,18,87,57,31,30.30,29.81,22,8,25,0.00
2014-3-27,55,46,38,51,34,18,87,64,31,30.46,30.28,11,3,13,0.00
2014-3-28,60,57,55,57,54,51,93,89,85,30.28,30.13,16,6,17,0.00
2014-3-29,63,60,58,61,58,56,97,94,91,30.13,29.61,32,12,32,0.29
2014-3-30,61,53,47,60,46,38,98,78,61,29.84,29.53,30,14,30,0.00
2014-3-31,68,56,45,48,36,31,75,49,27,30.06,29.84,29,8,29,0.00
2014-4-1,61,57,50,57,50,39,93,79,53,30.13,30.02,14,3,14,0.00
2014-4-2,62,59,57,57,56,54,93,89,83,30.09,30.00,24,10,24,0.00
2014-4-3,62,59,58,59,56,55,95,90,86,30.05,29.94,22,11,22,0.00
2014-4-4,63,60,58,60,58,57,97,94,87,29.95,29.81,33,17,33,0.00
2014-4-5,68,60,57,60,58,53,96,91,73,30.02,29.82,29,12,29,0.00
2014-4-6,58,55,52,53,46,39,88,73,61,30.11,30.01,27,10,27,0.00
2014-4-7,65,63,57,64,61,51,97,95,88,30.05,29.78,25,8,27,0.07
2014-4-8,66,62,60,64,61,57,98,96,86,29.81,29.55,31,13,31,0.14
2014-4-9,69,61,56,57,49,40,90,67,37,30.06,29.58,22,5,22,0.00
2014-4-10,64,60,53,58,53,44,92,78,51,30.26,30.05,17,5,17,0.00
2014-4-11,64,62,61,60,58,56,90,86,79,30.25,30.11,30,15,30,0.00
2014-4-12,66,63,61,62,60,58,92,89,84,30.23,30.15,20,5,20,0.00
2014-4-13,69,66,62,65,63,59,93,90,85,30.24,30.15,12,2,13,0.00
2014-4-14,69,66,64,66,62,60,95,89,79,30.16,29.92,19,6,19,0.08
2014-4-15,68,65,51,66,64,49,96,94,89,29.93,29.65,32,15,32,0.66
2014-4-16,56,46,40,49,36,32,93,71,49,30.38,29.73,37,14,37,0.20
2014-4-17,61,52,44,50,45,32,86,77,65,30.43,30.33,25,13,25,0.00
2014-4-18,61,54,48,52,48,45,92,83,67,30.39,30.15,25,11,25,0.04
2014-4-19,57,55,52,55,53,49,96,94,89,30.17,29.97,35,14,35,1.56
2014-4-20,57,55,52,56,53,49,95,93,91,30.05,29.96,35,17,35,0.10
2014-4-21,68,58,51,58,54,48,94,84,68,30.04,29.90,30,10,30,0.00
2014-4-22,64,60,54,60,57,52,93,89,81,29.91,29.65,22,7,22,0.00
2014-4-23,72,63,60,60,54,36,94,74,27,29.90,29.63,19,5,19,0.00
2014-4-24,63,58,54,54,46,37,86,65,38,30.10,29.89,15,6,15,0.00
2014-4-25,68,64,59,66,61,51,94,88,73,30.02,29.71,33,9,34,0.23
2014-4-26,72,64,60,62,56,44,94,74,37,29.98,29.77,19,8,20,0.01
2014-4-27,71,65,62,62,58,54,88,81,56,30.01,29.93,19,9,19,0.00
2014-4-28,70,67,62,67,65,60,95,92,86,30.00,29.89,12,4,12,0.00
2014-4-29,72,70,68,70,68,66,96,95,92,30.08,29.88,16,5,16,0.01
2014-4-30,72,70,67,70,68,65,97,94,90,30.09,29.93,33,8,40,0.28
2014-5-1,72,70,67,70,68,65,96,94,86,29.98,29.85,42,14,42,29.93
2014-5-2,70,66,63,68,60,55,94,79,63,29.90,29.82,28,7,28,29.98
2014-5-3,68,65,62,64,59,55,90,80,67,29.90,29.82,21,8,21,1.65
2014-5-4,76,68,63,64,57,46,90,70,36,29.96,29.84,27,10,27,0.00
2014-5-5,69,66,62,63,55,46,85,69,49,29.99,29.85,25,10,25,0.00
2014-5-6,83,71,65,68,65,61,94,83,50,30.00,29.80,13,6,15,0.00
2014-5-7,72,70,65,69,67,61,95,91,88,30.13,29.99,26,10,26,0.00
2014-5-8,72,70,69,69,68,65,95,91,85,30.19,30.08,23,11,23,0.00
2014-5-9,72,70,69,69,68,66,94,92,90,30.17,30.08,24,13,24,0.00
2014-5-10,72,71,69,69,68,68,95,92,90,30.16,30.07,22,9,22,0.00
2014-5-11,73,71,70,70,68,67,94,91,88,30.14,30.07,17,6,17,0.00
2014-5-12,74,71,68,71,69,67,95,94,92,30.20,30.11,13,3,13,0.01
2014-5-13,74,72,70,71,70,68,94,92,89,30.17,30.11,17,7,17,0.01
2014-5-14,77,73,71,71,70,68,94,89,79,30.21,30.13,7,3,7,0.01
2014-5-15,75,75,74,71,70,69,89,85,81,30.15,29.94,25,10,27,0.00
2014-5-16,76,73,68,72,67,53,93,80,55,29.99,29.82,106,15,106,1.09
2014-5-17,72,66,57,54,47,37,75,51,32,30.15,29.99,24,6,24,5.59
2014-5-18,71,67,62,60,55,47,82,67,45,30.16,30.10,21,4,21,0.01
2014-5-19,71,66,60,57,48,39,83,55,33,30.25,30.14,21,6,21,0.12
2014-5-20,70,67,59,59,53,44,74,62,47,30.27,30.13,24,10,24,1.24
2014-5-21,71,70,69,67,63,57,88,79,65,30.13,29.95,26,20,28,12.02
2014-5-22,74,71,70,68,67,66,91,88,81,29.96,29.83,20,10,20,0.05
2014-5-23,85,74,69,69,66,63,88,76,51,29.96,29.87,19,6,19,0.01
2014-5-24,78,70,67,67,60,51,90,71,41,30.11,29.91,21,6,21,0.00
2014-5-25,73,70,67,64,61,57,82,72,63,30.19,30.08,16,6,17,0.00
2014-5-26,74,73,71,68,66,63,84,80,75,30.23,30.12,24,12,24,0.00
2014-5-27,74,73,72,70,69,66,88,85,81,30.14,29.97,32,20,32,0.00
2014-5-28,74,73,72,71,69,66,92,89,81,30.01,29.92,27,13,27,0.00
2014-5-29,78,74,70,71,68,65,93,82,72,30.08,29.95,16,6,16,0.00
2014-5-30,74,70,68,66,64,63,88,84,75,30.11,30.02,14,4,14,0.00
2014-5-31,80,70,66,64,60,52,86,70,47,30.20,30.07,23,5,25,0.00
2014-6-1,73,68,63,56,54,50,75,60,46,30.29,30.19,23,8,23,0.00
2014-6-2,74,68,63,63,59,52,84,71,49,30.26,30.13,15,6,15,0.01
2014-6-3,75,72,68,69,64,55,83,76,56,30.14,29.93,22,12,27,0.00
2014-6-4,76,74,72,72,70,67,89,86,83,29.93,29.81,29,14,29,0.05
2014-6-5,76,75,71,72,71,66,89,87,84,29.84,29.73,34,22,34,1.24
2014-6-6,81,75,72,70,68,59,90,79,50,29.93,29.81,19,4,19,0.00
2014-6-7,80,75,70,69,63,59,86,69,51,29.99,29.91,19,6,19,0.00
2014-6-8,76,72,66,68,62,58,80,71,57,30.02,29.91,15,5,15,0.00
2014-6-9,78,77,75,74,71,68,90,84,78,29.94,29.90,20,11,20,0.00
2014-6-10,79,77,71,75,74,68,92,90,88,29.97,29.91,40,12,40,0.77
2014-6-11,80,78,77,76,75,73,92,89,84,29.99,29.91,19,10,19,0.00
2014-6-12,79,77,73,74,72,67,88,84,70,29.94,29.84,26,9,26,0.36
2014-6-13,79,78,77,74,73,71,86,84,79,29.90,29.83,32,19,32,0.00
2014-6-14,80,76,72,74,71,67,87,83,79,30.04,29.88,30,5,30,0.50
2014-6-15,79,76,73,70,67,65,88,75,65,30.17,30.03,22,7,22,0.00
2014-6-16,80,78,75,72,70,67,83,75,68,30.19,30.11,22,9,22,0.00
2014-6-17,80,79,78,74,72,69,84,79,72,30.17,30.10,27,17,27,0.00
2014-6-18,80,78,77,74,72,69,86,81,75,30.14,30.07,27,18,27,0.00
2014-6-19,80,79,77,74,73,72,86,82,76,30.13,29.99,29,19,29,0.00
2014-6-20,82,78,72,76,72,67,87,83,77,30.04,29.93,21,6,21,0.45
2014-6-21,80,78,74,75,72,68,86,82,78,29.95,29.81,24,10,24,0.06
2014-6-22,84,78,74,74,71,67,86,79,66,29.93,29.78,30,5,30,0.15
2014-6-23,83,78,74,72,69,66,88,75,62,30.11,29.93,21,6,25,0.00
2014-6-24,81,79,76,74,72,70,86,80,74,30.13,30.04,17,6,17,0.00
2014-6-25,82,80,75,76,74,69,85,82,79,30.06,29.92,30,14,30,0.09
2014-6-26,82,81,79,76,75,72,85,81,74,29.98,29.90,28,14,28,0.00
2014-6-27,84,79,73,76,72,68,86,79,71,30.08,29.95,27,6,27,0.18
2014-6-28,84,78,75,74,71,66,86,79,66,30.17,30.07,23,7,23,0.13
2014-6-29,82,77,73,67,64,55,78,66,44,30.18,30.10,18,6,18,0.00
2014-6-30,82,78,72,70,66,59,80,67,48,30.12,29.99,12,3,12,0.00
2014-7-1,82,80,77,75,72,69,83,76,70,30.01,29.94,17,6,17,0.00
2014-7-2,83,82,81,77,76,74,84,82,77,30.03,29.94,23,14,23,0.00
2014-7-3,83,81,76,77,76,71,88,82,78,30.03,29.24,66,20,66,1.03
2014-7-4,82,79,76,74,72,69,89,78,65,30.10,29.27,5,0,13,0.02
2014-7-5,81,76,73,74,61,56,85,60,45,30.24,30.10,0,0,1,0.00
2014-7-6,80,78,72,71,65,56,78,66,48,30.20,30.06,1,0,1,0.00
2014-7-7,81,79,75,74,71,69,83,77,71,30.07,29.99,1,0,4,0.00
2014-7-8,82,81,80,77,75,74,85,82,79,30.06,29.96,3,0,3,0.00
2014-7-9,82,81,81,77,76,74,87,84,80,30.07,29.98,2,0,2,0.00
2014-7-10,82,81,74,77,75,69,85,82,74,30.13,30.05,9,0,9,0.07
2014-7-11,80,78,74,73,71,69,87,80,74,30.19,30.09,1,0,1,0.26
2014-7-12,83,79,75,73,71,69,84,78,69,30.21,30.15,2,0,2,0.00
2014-7-13,82,80,76,75,72,71,85,77,71,30.16,30.05,3,0,3,0.00
2014-7-14,82,81,79,76,74,71,84,80,76,30.06,29.94,4,0,4,0.04
2014-7-15,82,81,78,76,74,69,85,81,72,29.94,29.82,25,8,25,0.09
2014-7-16,82,77,74,76,72,70,87,83,75,29.90,29.82,107,9,107,0.83
2014-7-17,84,77,71,71,67,60,89,74,47,30.08,29.89,1,0,1,0.00
2014-7-18,83,78,72,67,64,59,81,65,44,30.15,30.07,0,0,0,0.00
2014-7-19,80,77,74,73,70,63,84,78,67,30.13,30.04,6,0,6,0.00
2014-7-20,84,78,74,73,71,69,86,79,66,30.10,30.03,3,0,3,0.00
2014-7-21,82,78,72,75,72,68,86,82,75,30.14,30.06,4,0,4,0.60
2014-7-22,80,78,76,74,73,71,89,84,79,30.14,30.08,4,0,4,0.16
2014-7-23,82,80,77,76,74,72,86,82,75,30.08,29.94,2,0,2,0.00
2014-7-24,82,79,72,78,74,67,89,85,81,29.95,29.86,4,0,4,3.63
2014-7-25,82,76,70,71,69,66,89,79,64,30.04,29.91,0,0,2,0.23
2014-7-26,84,80,77,76,73,69,87,80,70,30.02,29.95,1,0,1,0.03
2014-7-27,84,82,81,79,77,75,88,84,80,29.97,29.81,3,0,3,0.00
2014-7-28,83,81,74,78,75,68,87,82,76,29.82,29.73,18,0,18,0.76
2014-7-29,83,78,73,72,67,63,85,69,53,29.98,29.80,6,0,6,0.01
2014-7-30,83,78,74,68,65,60,76,65,49,30.07,29.95,0,0,0,0.00
2014-7-31,84,79,75,69,67,64,80,67,53,30.13,30.05,0,0,0,0.00
2014-8-1,80,77,73,74,71,67,89,82,64,30.13,30.04,3,0,3,4.36
2014-8-2,80,77,75,74,71,68,88,83,78,30.10,30.03,4,0,4,1.12
2014-8-6,82,78,74,76,72,69,89,83,65,29.97,29.90,0,0,3,0.00
2014-8-7,83,78,74,75,72,68,85,80,73,30.00,29.89,0,0,1,0.68
2014-8-8,84,79,74,71,69,66,85,73,59,30.08,29.99,0,0,0,0.00
2014-8-9,80,76,72,70,67,65,85,76,64,30.10,30.03,0,0,0,0.04
2014-8-10,81,77,73,71,69,65,86,77,59,30.07,30.01,0,0,0,0.00
2014-8-11,83,79,76,73,69,67,84,72,60,30.04,29.95,0,0,0,0.00
2014-8-12,82,80,77,77,75,72,87,83,78,29.94,29.81,0,0,2,0.01
2014-8-13,85,80,77,77,72,64,86,76,55,29.94,29.79,6,0,6,0.75
2014-8-14,81,76,69,66,63,59,78,64,51,30.01,29.91,4,0,4,0.00
2014-8-15,81,78,74,68,65,60,72,64,57,30.04,29.96,2,0,2,0.00
2014-8-16,82,80,76,74,68,63,80,68,52,30.04,29.97,2,0,2,0.00
2014-8-17,83,81,78,77,74,71,85,80,70,30.00,29.93,2,0,2,0.00
2014-8-18,83,80,70,78,74,66,88,82,76,29.94,29.81,10,0,10,4.12
2014-8-19,83,80,73,77,73,67,85,80,75,29.87,29.76,19,3,19,0.01
2014-8-20,86,80,75,75,73,71,89,79,64,30.03,29.83,1,0,1,0.00
2014-8-21,85,82,76,79,75,67,85,80,56,30.07,29.97,3,0,3,0.21
2014-8-22,86,83,80,78,75,71,83,77,65,30.00,29.92,1,0,1,0.00
2014-8-23,83,79,74,74,72,68,87,80,71,29.95,29.90,2,0,2,1.48
2014-8-24,81,77,72,71,67,63,82,72,56,30.00,29.89,0,0,0,0.00
2014-8-25,80,74,69,71,66,63,85,77,67,30.04,29.97,4,0,4,0.00
2014-8-26,83,76,69,69,67,62,86,74,49,30.05,29.99,0,0,0,0.00
2014-8-27,85,78,72,72,69,67,87,75,59,29.99,29.90,1,0,1,0.00
2014-8-28,82,78,72,73,68,61,79,70,52,30.02,29.92,1,0,1,0.00
2014-8-29,84,81,78,73,70,61,84,70,47,30.16,30.02,1,0,1,0.00
2014-8-30,82,80,76,74,73,69,87,80,68,30.22,30.14,2,0,2,0.00
2014-8-31,84,82,81,75,73,69,79,75,67,30.19,30.09,2,0,2,0.00
2014-9-1,83,82,81,76,75,74,84,80,75,30.12,30.05,1,0,1,0.00
2014-9-2,83,82,81,77,76,75,84,81,78,30.08,29.99,3,0,3,0.00
2014-9-3,83,82,80,76,75,73,83,80,76,30.13,30.00,2,0,3,0.00
2014-9-4,84,82,77,75,73,68,82,75,67,30.19,30.11,112,0,112,0.11
2014-9-5,84,82,81,75,74,73,80,76,71,30.20,30.10,1,0,2,0.00
2014-9-6,83,81,76,75,73,68,83,77,71,30.10,29.97,4,0,4,0.51
2014-9-7,82,79,76,74,72,70,86,81,74,30.07,29.97,2,0,3,0.56
2014-9-8,80,77,74,74,71,69,87,83,77,30.11,30.02,2,0,2,3.04
2014-9-9,81,77,74,74,71,69,86,81,76,30.04,29.99,7,0,9,0.24
2014-9-10,83,77,72,70,69,67,87,76,58,30.08,29.99,3,0,5,0.00
2014-9-11,82,79,74,74,71,68,84,76,68,30.06,29.96,9,0,9,0.00
2014-9-12,82,79,75,76,73,70,88,82,76,30.08,29.98,9,0,10,0.50
2014-9-13,83,79,75,75,72,71,88,82,72,30.12,30.03,2,0,2,0.02
2014-9-14,77,73,71,71,66,62,86,78,70,30.21,30.10,0,0,0,0.00
2014-9-15,78,73,70,65,63,60,77,71,62,30.19,30.10,0,0,0,0.00
2014-9-16,79,76,73,71,68,64,81,76,71,30.10,29.93,1,0,1,0.03
2014-9-17,79,74,70,71,67,64,86,79,70,29.94,29.86,3,0,5,1.39
2014-9-18,79,74,70,66,62,55,81,66,49,30.04,29.87,0,0,0,0.00
2014-9-19,79,74,70,65,62,60,78,68,56,30.17,30.04,0,0,0,0.00
2014-9-20,76,73,70,69,67,62,88,81,71,30.16,29.83,22,3,22,0.56
2014-9-21,82,76,71,71,68,61,89,77,50,29.87,29.68,28,11,28,1.13
2014-9-22,81,77,71,72,65,60,78,67,50,30.10,29.86,28,7,28,0.00
2014-9-23,72,68,64,62,60,58,85,76,68,30.20,30.09,30,10,30,0.03
2014-9-24,77,72,64,71,68,60,89,87,82,30.16,30.08,30,6,32,0.42
2014-9-25,74,73,73,70,70,69,88,88,88,30.15,30.15,3,0,3,0.00
2014-9-29,76,72,69,66,64,62,87,78,64,30.04,29.91,5,2,12,0.00
2014-9-30,79,72,67,64,62,58,84,71,50,29.91,29.80,10,4,16,0.00
2014-10-1,80,72,66,66,62,58,86,72,50,30.02,29.85,8,3,16,0.00
2014-10-2,76,72,68,66,64,63,84,76,68,30.10,30.01,13,4,16,0.00
2014-10-3,78,73,69,70,66,63,84,79,70,30.07,29.81,19,8,22,0.06
2014-10-4,79,74,60,70,62,43,83,67,43,29.84,29.62,33,15,44,0.05
2014-10-5,65,62,53,49,44,36,66,52,38,30.04,29.84,14,4,24,0.00
2014-10-6,72,66,57,60,51,42,68,60,39,30.12,30.03,21,6,21,0.00
2014-10-7,76,74,68,66,62,58,72,67,63,30.15,30.04,24,10,24,0.00
2014-10-8,77,76,73,70,68,66,83,78,71,30.05,29.94,25,17,25,0.00
2014-10-9,76,71,65,68,56,51,83,60,44,30.13,29.99,20,4,20,0.00
2014-10-10,76,73,66,69,62,57,81,70,58,30.13,30.04,12,2,12,0.00
2014-10-11,77,75,68,71,69,63,85,81,76,30.05,29.93,18,11,19,0.26
2014-10-12,73,69,66,63,62,61,85,78,67,30.19,30.03,20,8,20,0.03
2014-10-13,77,74,68,70,67,63,86,80,74,30.24,30.16,25,8,25,0.00
2014-10-14,78,77,76,71,69,67,82,76,72,30.17,29.99,32,17,32,0.02
2014-10-15,79,73,66,71,67,56,86,81,70,29.99,29.81,37,14,37,1.59
2014-10-16,72,68,63,61,54,50,78,61,47,29.84,29.77,22,7,22,0.00
2014-10-17,72,66,58,61,55,51,77,66,55,29.91,29.81,24,9,24,0.00
2014-10-18,74,71,64,66,58,47,77,64,53,29.84,29.71,27,11,27,0.00
2014-10-19,66,61,56,49,46,42,71,59,45,30.11,29.83,21,5,21,0.00
2014-10-20,74,64,55,61,51,43,76,63,48,30.15,29.94,28,4,28,0.05
2014-10-21,73,69,63,61,58,56,83,70,57,29.94,29.81,22,7,22,0.02
2014-10-22,68,60,54,58,47,44,72,63,51,29.95,29.81,26,5,26,0.00
2014-10-23,68,59,50,52,46,42,75,62,47,29.95,29.85,21,6,21,0.00
2014-10-24,69,64,55,55,50,44,74,63,47,30.00,29.91,11,3,15,0.00
2014-10-25,70,63,54,57,51,46,75,66,46,29.96,29.83,21,4,21,0.00
2014-10-26,78,68,59,57,52,46,72,59,35,29.95,29.78,16,3,21,0.00
2014-10-27,73,66,55,59,53,43,77,62,44,30.10,29.95,6,2,6,0.00
2014-10-28,75,71,64,68,64,57,84,78,66,30.15,30.06,15,5,16,0.00
2014-10-29,72,72,68,66,65,62,83,80,78,30.06,29.91,22,12,24,0.00
2014-10-30,68,62,58,62,54,50,85,75,63,29.97,29.90,19,7,21,0.10
2014-10-31,65,60,56,51,49,45,72,65,55,29.89,29.71,21,9,25,0.00
2014-11-1,56,53,49,48,45,40,84,75,58,29.72,29.50,34,8,34,0.45
2014-11-2,51,47,41,40,33,30,69,58,49,30.23,29.72,33,8,33,0.00
2014-11-3,61,51,38,42,32,24,72,51,26,30.36,30.22,10,3,12,0.00
2014-11-4,65,60,52,53,44,34,65,56,46,30.33,30.23,18,9,18,0.00
2014-11-5,67,66,65,62,59,51,84,79,65,30.29,30.17,18,8,18,0.00
2014-11-6,69,68,58,62,61,46,82,78,65,30.19,29.72,32,16,32,0.00
2014-11-7,68,56,50,46,42,38,67,58,47,30.01,29.73,28,4,28,0.00
2014-11-8,62,55,47,49,44,37,75,66,49,30.04,29.93,10,2,11,0.00
2014-11-9,61,57,53,48,46,44,72,66,55,29.98,29.89,7,2,11,0.00
2014-11-10,66,59,52,54,50,44,82,73,58,30.06,29.95,17,6,23,0.00
2014-11-11,67,64,60,63,60,54,88,87,82,29.97,29.81,16,6,16,1.22
2014-11-12,75,65,59,61,58,54,89,80,48,29.99,29.82,16,4,16,0.00
2014-11-13,68,60,48,59,55,44,87,82,70,30.02,29.90,21,5,21,0.03
2014-11-14,48,44,40,44,35,28,86,71,60,30.21,29.93,21,9,25,0.02
2014-11-15,47,42,35,35,30,26,71,64,53,30.34,30.21,14,5,18,0.00
2014-11-16,58,50,43,52,43,33,87,78,70,30.32,30.01,19,6,19,0.40
2014-11-17,69,63,51,65,58,48,88,85,80,30.02,29.64,29,14,32,0.14
2014-11-18,63,44,33,58,30,18,85,58,36,30.27,29.71,20,6,21,0.00
2014-11-19,50,38,31,39,22,13,69,53,33,30.38,30.22,30,6,30,0.00
2014-11-20,59,51,41,48,37,24,71,60,45,30.22,30.01,34,15,34,0.00
2014-11-21,57,47,39,46,30,21,70,53,31,30.49,30.11,24,5,24,0.00
2014-11-22,56,46,38,43,36,27,70,66,44,30.51,30.28,14,3,14,0.00
2014-11-23,66,59,48,60,52,38,84,78,68,30.29,29.80,33,10,35,0.13
2014-11-24,66,63,61,62,60,58,89,88,83,29.95,29.77,40,11,40,29.96
2014-11-25,67,62,60,62,58,56,89,87,80,30.05,29.91,15,2,15,0.00
2014-11-26,67,55,44,64,51,37,89,85,77,30.07,29.66,31,9,31,0.34
2014-11-27,58,48,41,46,39,33,82,71,52,30.16,29.90,33,8,33,16.57
2014-11-28,46,41,35,33,28,25,73,61,47,30.29,30.15,21,4,21,0.00
2014-11-29,58,47,39,49,34,24,71,62,41,30.35,30.24,15,3,15,0.00
2014-11-30,60,57,50,53,48,39,80,71,58,30.34,30.23,16,8,19,0.00
2014-12-1,61,58,56,55,53,50,85,82,80,30.36,30.26,12,4,12,0.00
2014-12-2,57,54,51,52,50,47,88,85,83,30.38,30.27,19,6,19,0.01
2014-12-3,58,55,50,54,51,47,89,88,87,30.30,30.15,12,3,12,0.00
2014-12-4,58,53,50,54,46,42,87,77,64,30.34,30.20,22,8,22,0.00
2014-12-5,61,55,48,50,47,42,83,75,68,30.36,30.27,21,8,21,0.00
2014-12-6,65,59,54,61,55,49,88,86,83,30.28,29.97,13,3,13,0.28
2014-12-7,61,48,44,57,42,36,88,77,69,30.25,29.96,34,15,34,0.01
2014-12-8,56,50,45,46,42,36,86,75,65,30.24,29.96,33,14,33,0.00
2014-12-9,48,44,42,43,40,37,87,86,83,29.99,29.79,24,8,24,0.17
2014-12-10,53,47,42,41,37,32,83,69,51,29.92,29.80,28,7,28,0.01
2014-12-11,48,42,36,33,30,26,71,63,47,30.06,29.92,22,5,22,0.00
2014-12-12,54,44,34,33,27,22,70,51,33,30.15,30.02,11,3,12,0.00
2014-12-13,47,41,36,34,29,27,71,63,52,30.08,30.04,4,1,5,0.00
2014-12-24,64,63,61,60,59,56,87,87,86,29.81,29.74,35,20,35,0.40